Content
SEND FEEDBACK

Daily
Averages
Monthly
Summary
United States of America

SHASTA RETREAT, CALIFORNIA


Home > North America > United States > California
Elevation: 2954 feet     Latitude: 41 13N     Longitude: 122 16W

WEATHER
 
SELECT A DAY
Number of Records: 231,336;   Date Range: 1/1/95 - 7/26/14
 
SHARE

PRINT THIS DATA

[ ← Previous Day ]
WEATHER ALMANAC - OCTOBER 15, 2013
[ Next Day → ]
[ °C ]   °F
Weather ElementAverageHighLow
Temperature45.1 °F64.9 °F (2:56 pm)30 °F (4:56 am)
Dewpoint27.7 °F33.1 °F (6:56 pm)23 °F (6:56 am)
Humidity54.6 %79 % (4:56 am)27 % (2:56 pm)
Barometer30.27 in30.36 in (7:56 am)30.20 in (3:56 pm)
Wind Speed1.2 mph4.6 mph (5:56 am)
Weather ElementAverage
Visibility9.9 mi
Wind DirectionNNE (30.4 °)

Weather ElementTotal
Precipitation---
Heating Degree Days17.6 (Base 65)
Averaged from 23 records on October 15, 2013
WEATHER CONDITIONS BREAKOUT
WIND DIRECTION BREAKOUT
WEATHER BY HOUR - OCTOBER 15, 2013
[ °C ]   °F
Local TimeTemperatureDewpointHumidityBarometerVisibilityWind DirectionWind SpeedGust SpeedPrecipitationEventsConditions
1:56 AM33.1 °F26.1 °F75 %30.31 in10.0 miCalmClear
2:56 AM32.0 °F25.0 °F75 %30.30 in10.0 miCalmClear
3:56 AM32.0 °F25.0 °F75 %30.29 in10.0 miCalmClear
4:56 AM30.0 °F24.1 °F79 %30.30 in10.0 miCalmClear
5:56 AM30.9 °F24.1 °F76 %30.32 in10.0 miENE (60°)4.6 mphClear
6:56 AM30.0 °F23.0 °F75 %30.34 in10.0 miCalmClear
7:56 AM30.9 °F23.0 °F72 %30.36 in10.0 miNE (50°)3.5 mphClear
8:56 AM39.0 °F26.1 °F60 %30.36 in10.0 miCalmClear
9:56 AM50.0 °F28.9 °F44 %30.33 in10.0 miCalmClear
10:56 AM55.0 °F28.9 °F37 %30.30 in10.0 miCalmClear
11:56 AM59.0 °F30.0 °F33 %30.30 in10.0 miVariable4.6 mphClear
12:56 PM61.0 °F30.0 °F31 %30.27 in10.0 miVariable3.5 mphClear
1:56 PM63.0 °F30.0 °F29 %30.24 in10.0 miWest (280°)4.6 mphClear
2:56 PM64.9 °F30.0 °F27 %30.22 in10.0 miCalmClear
3:56 PM64.9 °F30.0 °F27 %30.20 in10.0 miNW (310°)3.5 mphClear
4:56 PM62.1 °F30.9 °F31 %30.21 in10.0 miVariable3.5 mphClear
5:56 PM57.0 °F30.9 °F37 %30.22 in10.0 miCalmClear
6:56 PM48.9 °F33.1 °F54 %30.25 in10.0 miCalmClear
7:56 PM43.0 °F30.9 °F62 %30.27 in10.0 miCalmClear
8:56 PM39.9 °F28.0 °F63 %30.25 in8.0 miCalmClear
9:56 PM37.9 °F27.0 °F65 %30.24 in9.0 miCalmClear
10:56 PM37.9 °F26.1 °F62 %30.22 in10.0 miCalmClear
11:56 PM36.0 °F26.1 °F67 %30.21 in10.0 miCalmClear
Hourly data recorded from KMHS, located miles away from Shasta Retreat, California







STORIES FROM OUR PARTNERS